Total_Precipitation_Accumulation
0.28 0.41 0.93 1.15 1.31 1.30 1.17 1.04 0.99 0.98 0.98 1.01 1.03 1.01 0.96 0.96 0.99 0.93 0.90 0.92 0.98 1.09 1.19 1.20 1.15 1.03 0.89 0.84 0.77 0.70 0.66 0.62 0.59 0.55 0.51 0.62 0.75 0.76 0.63 0.61 0.71 0.72 0.91
0.27 0.41 0.86 1.11 1.25 1.18 1.10 1.02 0.95 0.91 0.95 1.03 1.14 1.13 1.04 1.02 1.01 0.99 0.94 0.96 1.02 1.16 1.33 1.30 1.17 0.99 0.76 0.63 0.58 0.55 0.51 0.41 0.35 0.25 0.20 0.29 0.48 0.65 0.66 0.60 0.67 0.79 0.92
0.25 0.36 0.72 1.08 1.21 1.19 1.16 1.08 0.99 0.93 0.97 1.09 1.20 1.18 1.09 0.98 0.97 1.00 0.96 0.96 1.01 1.14 1.21 1.18 1.04 0.87 0.68 0.58 0.50 0.47 0.41 0.31 0.23 0.15 0.17 0.27 0.39 0.63 0.66 0.69 0.79 0.86 0.95
0.28 0.36 0.65 1.12 1.23 1.21 1.16 1.13 1.08 1.00 0.98 1.06 1.17 1.11 1.07 1.04 1.04 0.97 0.97 0.99 1.01 1.01 0.96 0.95 0.86 0.75 0.60 0.51 0.48 0.46 0.39 0.31 0.19 0.15 0.28 0.39 0.44 0.72 0.81 0.81 0.91 0.89 0.90
0.36 0.44 0.74 1.15 1.27 1.24 1.20 1.13 1.15 1.15 1.10 1.09 1.09 1.10 1.07 1.03 1.06 1.03 0.97 0.97 0.95 0.96 0.88 0.80 0.72 0.63 0.53 0.47 0.45 0.45 0.38 0.29 0.18 0.18 0.30 0.44 0.63 1.00 1.01 0.90 0.92 0.85 0.80
0.44 0.63 0.91 1.21 1.32 1.31 1.24 1.19 1.21 1.25 1.29 1.23 1.18 1.14 1.16 1.14 1.15 1.10 0.97 0.87 0.86 0.86 0.84 0.76 0.66 0.60 0.51 0.45 0.45 0.44 0.40 0.27 0.18 0.24 0.31 0.42 0.66 1.10 1.11 1.00 0.97 0.97 0.93
0.53 0.77 1.08 1.35 1.41 1.37 1.31 1.30 1.34 1.40 1.43 1.40 1.35 1.30 1.25 1.28 1.24 1.13 0.97 0.86 0.86 0.85 0.85 0.81 0.68 0.61 0.56 0.49 0.51 0.50 0.36 0.23 0.21 0.27 0.37 0.47 0.76 1.10 1.13 1.08 1.12 1.11 1.08
0.80 1.04 1.33 1.57 1.53 1.41 1.32 1.27 1.29 1.42 1.46 1.40 1.33 1.35 1.36 1.31 1.25 1.15 1.00 0.92 0.94 0.97 0.98 0.90 0.80 0.69 0.62 0.56 0.52 0.47 0.33 0.24 0.24 0.26 0.34 0.46 0.80 1.12 1.19 1.12 1.16 1.19 1.18
1.33 1.50 1.62 1.68 1.61 1.57 1.41 1.27 1.23 1.29 1.38 1.40 1.33 1.27 1.29 1.30 1.32 1.23 1.11 1.07 1.05 1.08 1.03 0.94 0.85 0.78 0.69 0.60 0.49 0.37 0.28 0.26 0.26 0.25 0.25 0.39 0.74 1.13 1.30 1.28 1.29 1.35 1.27
1.82 1.94 1.98 1.94 1.81 1.70 1.57 1.35 1.22 1.24 1.29 1.33 1.31 1.16 1.07 1.13 1.23 1.16 1.03 1.07 1.08 1.07 0.99 0.91 0.87 0.85 0.76 0.66 0.48 0.33 0.28 0.28 0.23 0.25 0.31 0.45 0.85 1.26 1.41 1.38 1.43 1.40 1.33
2.20 2.26 2.34 2.29 2.11 1.98 1.74 1.42 1.34 1.36 1.37 1.30 1.25 1.09 1.07 1.12 1.12 1.04 0.96 0.92 0.91 0.93 0.90 0.89 0.88 0.82 0.74 0.67 0.50 0.36 0.33 0.31 0.26 0.27 0.33 0.57 0.98 1.30 1.43 1.40 1.44 1.34 1.23
2.36 2.43 2.47 2.49 2.44 2.34 2.09 1.80 1.67 1.53 1.48 1.33 1.19 1.16 1.10 1.12 1.18 1.08 1.04 0.93 0.85 0.83 0.82 0.86 0.88 0.83 0.72 0.64 0.56 0.42 0.36 0.35 0.36 0.33 0.37 0.63 1.00 1.33 1.46 1.44 1.40 1.31 1.19
2.53 2.62 2.64 2.73 2.67 2.53 2.28 1.99 1.81 1.73 1.66 1.55 1.37 1.29 1.21 1.23 1.23 1.25 1.22 1.13 0.97 0.84 0.85 0.83 0.80 0.69 0.64 0.60 0.60 0.48 0.39 0.36 0.40 0.38 0.43 0.61 0.93 1.38 1.57 1.51 1.42 1.35 1.23
2.67 2.65 2.74 2.84 2.82 2.67 2.42 2.22 1.96 1.86 1.82 1.75 1.61 1.52 1.47 1.38 1.34 1.26 1.18 1.14 1.13 0.95 0.94 0.90 0.76 0.63 0.61 0.57 0.58 0.55 0.48 0.44 0.43 0.46 0.48 0.59 0.83 1.24 1.46 1.44 1.41 1.38 1.37
2.62 2.72 2.86 2.87 2.83 2.82 2.70 2.42 2.13 2.00 1.92 1.88 1.91 1.76 1.65 1.56 1.48 1.46 1.33 1.22 1.14 1.11 1.09 1.05 0.94 0.85 0.76 0.70 0.64 0.61 0.56 0.51 0.48 0.48 0.50 0.51 0.63 0.92 1.22 1.40 1.51 1.52 1.51
2.34 2.64 2.85 2.91 2.87 2.81 2.83 2.70 2.36 2.04 2.00 1.98 1.95 1.96 1.89 1.78 1.67 1.60 1.51 1.44 1.32 1.24 1.20 1.17 1.06 1.09 1.07 0.97 0.84 0.73 0.65 0.59 0.54 0.50 0.48 0.50 0.57 0.69 0.97 1.28 1.46 1.58 1.71
2.09 2.38 2.68 2.94 2.99 2.86 2.81 2.88 2.80 2.46 2.17 1.98 1.93 1.95 1.98 1.90 1.81 1.73 1.71 1.58 1.41 1.35 1.37 1.36 1.31 1.28 1.24 1.13 1.00 0.93 0.85 0.77 0.69 0.63 0.57 0.54 0.57 0.64 0.81 1.09 1.32 1.50 1.75
1.94 2.17 2.42 2.61 2.86 2.89 2.80 2.79 2.84 2.71 2.48 2.25 2.04 1.97 1.93 1.87 1.86 1.84 1.80 1.77 1.62 1.57 1.58 1.54 1.46 1.42 1.32 1.22 1.12 1.06 0.99 0.94 0.87 0.86 0.81 0.71 0.68 0.63 0.74 1.00 1.18 1.39 1.65
1.82 2.07 2.39 2.40 2.56 2.85 3.07 2.96 2.78 2.70 2.54 2.40 2.22 2.00 1.89 1.94 1.98 1.92 1.78 1.75 1.79 1.70 1.65 1.67 1.62 1.53 1.45 1.40 1.34 1.24 1.15 1.08 1.00 0.98 1.00 0.94 0.88 0.81 0.77 0.89 1.04 1.15 1.42
1.82 2.01 2.31 2.38 2.51 2.77 3.08 3.14 3.03 2.84 2.60 2.50 2.30 2.05 1.91 1.88 1.98 1.94 1.81 1.80 1.87 1.82 1.67 1.62 1.58 1.57 1.51 1.55 1.55 1.45 1.35 1.26 1.20 1.12 1.07 1.06 1.03 0.97 0.90 0.86 0.87 0.94 1.15
1.93 1.99 2.17 2.34 2.48 2.63 2.79 2.78 2.67 2.67 2.64 2.58 2.43 2.27 2.14 2.04 2.03 2.04 1.94 1.93 1.94 1.88 1.79 1.79 1.81 1.74 1.63 1.63 1.65 1.50 1.41 1.37 1.27 1.20 1.14 1.04 0.99 0.99 1.00 0.97 0.88 0.85 0.91
1.84 1.92 2.12 2.31 2.40 2.42 2.57 2.76 2.67 2.71 2.78 2.83 2.76 2.57 2.41 2.32 2.25 2.18 2.16 2.19 2.14 2.04 1.97 1.92 1.94 1.92 1.81 1.77 1.78 1.75 1.59 1.54 1.37 1.16 1.11 1.03 0.99 0.98 0.98 1.04 1.02 0.92 0.84
1.71 1.94 2.07 2.19 2.34 2.41 2.66 3.11 3.06 2.94 2.87 2.88 2.90 2.80 2.62 2.51 2.46 2.35 2.29 2.35 2.34 2.21 2.11 2.04 1.99 1.94 1.98 1.96 1.88 1.97 1.75 1.48 1.34 1.22 1.12 1.05 1.03 1.04 1.03 1.05 1.07 1.03 0.95
1.51 1.79 2.08 2.21 2.38 2.61 2.87 3.12 3.16 2.89 2.71 2.66 2.68 2.78 2.79 2.57 2.51 2.50 2.47 2.44 2.46 2.42 2.25 2.17 2.11 2.08 2.10 2.07 2.00 1.82 1.70 1.49 1.41 1.30 1.18 1.15 1.12 1.06 1.04 1.05 1.07 1.09 1.10
1.36 1.56 1.83 2.12 2.26 2.56 2.80 2.96 3.17 2.94 2.63 2.65 2.65 2.63 2.72 2.66 2.48 2.46 2.43 2.36 2.33 2.35 2.39 2.35 2.19 2.14 2.09 1.98 1.91 1.78 1.68 1.48 1.32 1.32 1.19 1.09 1.13 1.08 1.03 1.01 1.07 1.11 1.14
1.21 1.34 1.51 1.76 1.91 2.07 2.33 2.59 2.83 2.89 2.77 2.66 2.51 2.48 2.53 2.52 2.48 2.44 2.43 2.33 2.21 2.16 2.16 2.27 2.29 2.17 2.10 1.99 1.88 1.81 1.73 1.63 1.45 1.42 1.37 1.15 1.11 1.09 1.07 1.05 1.02 1.05 1.09